TimeEDT,TemperatureF,Dew PointF,Humidity,Sea Level PressureIn,VisibilityMPH,Wind Direction,Wind SpeedMPH,Gust SpeedMPH,PrecipitationIn,Events,Conditions,WindDirDegrees,DateUTC
12:15 AM,37.4,33.8,87,30.03,10.0,NNE,4.6,-,N/A,,Clear,20,2013-04-08 04:15:00
12:35 AM,37.4,33.8,87,30.03,9.0,North,4.6,-,N/A,,Clear,10,2013-04-08 04:35:00
12:55 AM,37.4,33.8,87,30.03,8.0,North,4.6,-,N/A,,Clear,10,2013-04-08 04:55:00
1:15 AM,37.4,33.8,87,30.03,8.0,North,4.6,-,N/A,,Clear,10,2013-04-08 05:15:00
1:35 AM,37.4,33.8,87,30.04,9.0,North,4.6,-,N/A,,Clear,10,2013-04-08 05:35:00
1:55 AM,37.4,32.0,81,30.04,10.0,North,5.8,-,N/A,,Clear,360,2013-04-08 05:55:00
2:15 AM,35.6,32.0,87,30.04,9.0,North,5.8,-,N/A,,Clear,360,2013-04-08 06:15:00
2:35 AM,35.6,32.0,87,30.04,8.0,North,5.8,-,N/A,,Clear,360,2013-04-08 06:35:00
2:55 AM,35.6,30.2,81,30.04,10.0,North,4.6,-,N/A,,Clear,10,2013-04-08 06:55:00
3:15 AM,35.6,30.2,81,30.04,10.0,North,4.6,-,N/A,,Clear,360,2013-04-08 07:15:00
3:35 AM,35.6,30.2,81,30.04,10.0,North,3.5,-,N/A,,Clear,10,2013-04-08 07:35:00
3:55 AM,35.6,30.2,81,30.04,10.0,Calm,Calm,-,N/A,,Clear,0,2013-04-08 07:55:00
4:15 AM,33.8,28.4,81,30.04,10.0,Calm,Calm,-,N/A,,Clear,0,2013-04-08 08:15:00
4:35 AM,35.6,30.2,81,30.04,10.0,Calm,Calm,-,N/A,,Clear,0,2013-04-08 08:35:00
4:55 AM,33.8,28.4,81,30.03,10.0,Calm,Calm,-,N/A,,Clear,0,2013-04-08 08:55:00
5:15 AM,33.8,28.4,81,30.03,10.0,Calm,Calm,-,N/A,,Clear,0,2013-04-08 09:15:00
5:35 AM,33.8,28.4,81,30.03,10.0,Calm,Calm,-,N/A,,Clear,0,2013-04-08 09:35:00
5:55 AM,33.8,28.4,81,30.03,10.0,Calm,Calm,-,N/A,,Clear,0,2013-04-08 09:55:00
6:15 AM,33.8,30.2,87,30.03,10.0,Calm,Calm,-,N/A,,Clear,0,2013-04-08 10:15:00
6:35 AM,32.0,28.4,87,30.03,7.0,SSE,3.5,-,N/A,,Clear,160,2013-04-08 10:35:00
6:55 AM,32.0,28.4,87,30.03,2.5,South,3.5,-,N/A,,Clear,170,2013-04-08 10:55:00
7:15 AM,33.8,30.2,87,30.05,1.5,Calm,Calm,-,N/A,,Clear,0,2013-04-08 11:15:00
7:35 AM,33.8,32.0,93,30.05,2.0,Calm,Calm,-,N/A,,Clear,0,2013-04-08 11:35:00
7:55 AM,33.8,32.0,93,30.06,2.0,South,4.6,-,N/A,,Clear,170,2013-04-08 11:55:00
8:15 AM,33.8,32.0,93,30.07,3.0,South,3.5,-,N/A,,Clear,180,2013-04-08 12:15:00
8:35 AM,37.4,33.8,87,30.07,7.0,South,8.1,-,N/A,,Clear,170,2013-04-08 12:35:00
8:55 AM,37.4,33.8,87,30.07,8.0,South,5.8,-,N/A,,Clear,170,2013-04-08 12:55:00
9:15 AM,39.2,35.6,87,30.05,9.0,SSE,8.1,-,N/A,,Clear,160,2013-04-08 13:15:00
9:35 AM,42.8,35.6,76,30.05,10.0,South,9.2,-,N/A,,Clear,170,2013-04-08 13:35:00
9:55 AM,42.8,35.6,76,30.06,10.0,South,6.9,-,N/A,,Clear,170,2013-04-08 13:55:00
10:15 AM,46.4,35.6,66,30.05,10.0,South,8.1,-,N/A,,Clear,170,2013-04-08 14:15:00
10:35 AM,46.4,37.4,71,30.05,10.0,South,9.2,-,N/A,,Clear,170,2013-04-08 14:35:00
10:55 AM,51.8,35.6,54,30.04,10.0,SSE,6.9,-,N/A,,Clear,160,2013-04-08 14:55:00
11:55 AM,55.4,37.4,51,30.01,10.0,SSE,8.1,-,N/A,,Unknown,150,2013-04-08 15:55:00
12:15 PM,57.2,37.4,48,30.01,10.0,South,9.2,-,N/A,,Clear,190,2013-04-08 16:15:00
12:35 PM,60.8,37.4,42,30.01,10.0,South,9.2,-,N/A,,Partly Cloudy,170,2013-04-08 16:35:00
12:55 PM,60.8,37.4,42,29.99,10.0,SSW,10.4,-,N/A,,Scattered Clouds,200,2013-04-08 16:55:00
1:15 PM,62.6,37.4,39,29.98,10.0,SSW,6.9,-,N/A,,Mostly Cloudy,200,2013-04-08 17:15:00
1:35 PM,62.6,37.4,39,29.96,10.0,South,5.8,-,N/A,,Mostly Cloudy,180,2013-04-08 17:35:00
1:55 PM,60.8,35.6,39,29.96,10.0,SSW,10.4,-,N/A,,Mostly Cloudy,200,2013-04-08 17:55:00
2:15 PM,62.6,37.4,39,29.94,10.0,South,10.4,17.3,N/A,,Mostly Cloudy,170,2013-04-08 18:15:00
2:35 PM,64.4,37.4,37,29.93,10.0,SSW,10.4,20.7,N/A,,Mostly Cloudy,200,2013-04-08 18:35:00
2:55 PM,64.4,37.4,37,29.92,10.0,South,11.5,-,N/A,,Mostly Cloudy,180,2013-04-08 18:55:00
3:15 PM,64.4,39.2,40,29.91,10.0,South,9.2,-,N/A,,Overcast,190,2013-04-08 19:15:00
3:35 PM,64.4,42.8,45,29.91,10.0,South,16.1,-,N/A,,Overcast,180,2013-04-08 19:35:00
3:55 PM,64.4,42.8,45,29.89,10.0,South,8.1,-,N/A,,Overcast,180,2013-04-08 19:55:00
4:15 PM,64.4,42.8,45,29.89,10.0,SSW,11.5,21.9,N/A,,Overcast,200,2013-04-08 20:15:00
4:35 PM,64.4,42.8,45,29.88,10.0,SSW,11.5,18.4,N/A,,Overcast,200,2013-04-08 20:35:00
4:55 PM,64.4,44.6,49,29.87,10.0,South,5.8,-,N/A,,Overcast,180,2013-04-08 20:55:00
5:15 PM,64.4,44.6,49,29.87,10.0,South,8.1,-,N/A,,Overcast,180,2013-04-08 21:15:00
5:35 PM,62.6,44.6,52,29.86,10.0,South,9.2,-,N/A,,Overcast,180,2013-04-08 21:35:00
5:55 PM,64.4,44.6,49,29.85,10.0,South,10.4,17.3,N/A,,Overcast,190,2013-04-08 21:55:00
6:15 PM,66.2,42.8,43,29.84,10.0,SSW,17.3,20.7,N/A,,Overcast,200,2013-04-08 22:15:00
6:35 PM,64.4,42.8,45,29.84,10.0,South,17.3,24.2,N/A,,Overcast,190,2013-04-08 22:35:00
6:55 PM,64.4,42.8,45,29.85,10.0,SSW,16.1,23.0,N/A,,Overcast,210,2013-04-08 22:55:00
7:15 PM,64.4,42.8,45,29.85,10.0,SSW,13.8,25.3,N/A,,Overcast,210,2013-04-08 23:15:00
7:35 PM,64.4,42.8,45,29.84,10.0,SSW,11.5,24.2,N/A,,Overcast,200,2013-04-08 23:35:00
7:55 PM,64.4,44.6,49,29.85,10.0,SSW,13.8,19.6,N/A,,Overcast,200,2013-04-08 23:55:00
8:15 PM,62.6,44.6,52,29.85,10.0,SSW,12.7,20.7,N/A,,Overcast,200,2013-04-09 00:15:00
8:35 PM,62.6,44.6,52,29.85,10.0,SSW,12.7,19.6,N/A,,Overcast,200,2013-04-09 00:35:00
8:55 PM,62.6,44.6,52,29.86,10.0,SSW,11.5,16.1,N/A,,Overcast,200,2013-04-09 00:55:00
9:15 PM,62.6,44.6,52,29.86,10.0,SSW,11.5,-,N/A,,Mostly Cloudy,200,2013-04-09 01:15:00
9:35 PM,62.6,44.6,52,29.86,10.0,SSW,12.7,19.6,N/A,,Mostly Cloudy,210,2013-04-09 01:35:00
9:55 PM,62.6,44.6,52,29.87,10.0,SSW,10.4,18.4,N/A,,Overcast,210,2013-04-09 01:55:00
10:15 PM,62.6,44.6,52,29.86,10.0,SSW,11.5,20.7,N/A,,Mostly Cloudy,210,2013-04-09 02:15:00
10:35 PM,62.6,46.4,55,29.87,10.0,SW,12.7,25.3,N/A,,Overcast,220,2013-04-09 02:35:00
10:55 PM,60.8,46.4,59,29.87,10.0,SSW,9.2,-,N/A,,Mostly Cloudy,210,2013-04-09 02:55:00
11:15 PM,60.8,46.4,59,29.88,10.0,SSW,10.4,-,N/A,,Mostly Cloudy,210,2013-04-09 03:15:00
11:35 PM,60.8,46.4,59,29.87,10.0,SW,11.5,20.7,N/A,,Mostly Cloudy,230,2013-04-09 03:35:00
11:55 PM,60.8,46.4,59,29.88,10.0,SW,12.7,18.4,N/A,,Overcast,230,2013-04-09 03:55:00